Regional Weather Roundup
Issued by NWS

Home | Current Version | Previous Version | Graphics & Text | Print | Product List | Glossary Off
Versions: 1 2 3 4 5 6 7 8 9 10 11 12 13 14 15 16 17 18 19 20 21 22 23 24 25 26 27 28 29 30 31 32 33 34 35 36 37 38 39 40 41 42 43 44 45 46 47 48 49 50

000
ASUS43 KTOP 300108
RWRKS

WEATHER ROUNDUP FOR KANSAS
NATIONAL WEATHER SERVICE GOODLAND KS
800 PM CDT SUN MAR 29 2015

NOTE:  "FAIR" INDICATES FEW OR NO CLOUDS BELOW 12,000 FEET WITH NO
SIGNIFICANT WEATHER AND/OR OBSTRUCTIONS TO VISIBILITY.

KSZ001>006-013>018-027>032-041>047-300200-
NORTHWEST KANSAS

CITY           SKY/WX    TMP DP  RH WIND       PRES   REMARKS
GOODLAND       CLEAR     55  22  27 NE5       30.17R
HAYS           CLEAR     57  16  19 N9        30.16R
HILL CITY      CLEAR     56  16  20 N8        30.17R
RUSSELL        CLEAR     57  17  21 N7        30.14R
$$

KSZ061>065-074>080-084>089-300200-
SOUTHWEST KANSAS

CITY           SKY/WX    TMP DP  RH WIND       PRES   REMARKS
DODGE CITY     CLEAR     58  22  24 N9        30.16R
ELKHART          N/A     60  22  23 NE5         N/A
GARDEN CITY    CLEAR     59  25  27 NE7       30.17R
GREAT BEND     CLEAR     57  21  24 N10       30.14S
LIBERAL        CLEAR     63  27  25 NE8       30.18S
PRATT          CLEAR     57  28  33 N6        30.16R
$$

KSZ066>073-081>083-090>101-300200-
SOUTHEAST KANSAS

CITY           SKY/WX    TMP DP  RH WIND       PRES   REMARKS
CHANUTE        CLEAR     64  39  39 N13       30.09R
COFFEYVILLE    CLEAR     59  44  57 S7        30.07R
HUTCHINSON     CLEAR     64  26  23 N9        30.12R
MEDICINE LODGE   N/A     63  30  28 NE8       30.12R
NEWTON         CLEAR     57  28  33 N10       30.14R
PARSONS        CLEAR     59  46  62 S3        30.09R
WICHITA INTL   CLEAR     67  30  25 N13       30.10R
WICHITA JABRA  CLEAR     61  32  33 N10       30.11R
WICHITA MCCONL CLEAR     65  31  28 N10       30.11R
WINFIELD       CLEAR     64  37  36 N9        30.11R
$$

KSZ007>012-019>026-033>040-048>060-102>105-300200-
NORTHEAST KANSAS

CITY           SKY/WX    TMP DP  RH WIND       PRES   REMARKS
CONCORDIA      CLEAR     56  21  25 N7        30.14R
EMPORIA        CLEAR     59  36  42 N12       30.10R
LAWRENCE       CLEAR     52  36  54 NW9       30.11R
MANHATTAN      CLEAR     59  30  33 N6        30.13
MARYSVILLE     CLEAR     54  32  43 NW7       30.12R
OLATHE IND     CLEAR     55  37  50 NW10      30.10R
OLATHE EXE     CLEAR     57  37  47 N7        30.09R
SALINA         CLEAR     64  23  21 N13       30.13R
TOPEKA BILLARD CLEAR     56  36  47 NW8       30.12R
TOPEKA FORBES  CLEAR     58  36  43 N8        30.11R
$$


USA.gov is the U.S. government's official web portal to all federal, state and local government web resources and services.